Regional Weather Roundup
Issued by NWS

Home | Current Version | Previous Version | Graphics & Text | Print | Product List | Glossary Off
Versions: 1 2 3 4 5 6 7 8 9 10 11 12 13 14 15 16 17 18 19 20 21 22 23 24 25 26 27 28 29 30 31 32 33 34 35 36 37 38 39 40 41 42 43 44 45 46 47 48 49 50

000
ASUS43 KMKX 261921
RWRWI

WISCONSIN REGIONAL WEATHER ROUNDUP
NATIONAL WEATHER SERVICE MILWAUKEE/SULLIVAN WI
200 PM CDT SAT JUL 26 2014

NOTE: "FAIR" INDICATES FEW OR NO CLOUDS BELOW 12,000 FEET WITH NO
SIGNIFICANT WEATHER AND/OR OBSTRUCTIONS TO VISIBILITY.

WIZ001-002-006>008-014>016-023>028-262000-
NORTHWEST WISCONSIN

CITY           SKY/WX    TMP DP  RH WIND       PRES   REMARKS
SUPERIOR ARPT  SUNNY     83  58  42 SW8       29.76F HX  83
ASHLAND        SUNNY     82  56  40 SW3       29.78F HX  82
HAYWARD        SUNNY     83  53  35 CALM      29.81S HX  82
SIREN          MOSUNNY   83  54  36 SW5       29.82F HX  82
RICE LAKE      PTSUNNY   82  57  43 SW7       29.85R HX  82
LADYSMITH      PTSUNNY   81  57  43 W5        29.84S HX  81
EAU CLAIRE     CLOUDY    81  65  58 W7        29.82R HX  83
MENOMONIE      CLOUDY    81  67  61 SW6       29.83S HX  83
NEW RICHMOND   CLOUDY    80  65  60 W8        29.84S HX  82
OSCEOLA        PTSUNNY   81  63  53 SW7       29.86S HX  82
$$

WIZ003>005-009-010-017-018-262000-
NORTH CENTRAL WISCONSIN

CITY           SKY/WX    TMP DP  RH WIND       PRES   REMARKS
WOODRUFF       SUNNY     82  58  42 NW12      29.81S HX  82
RHINELANDER    MOSUNNY   80  58  46 W15G21    29.82R HX  80
EAGLE RIVER    SUNNY     78  52  39 NW16G23   29.81R
LAND O LAKES   SUNNY     79  51  36 W12G17    29.81F
PHILLIPS       MOSUNNY   80  56  43 NW5       29.81S HX  80
TOMAHAWK       MOSUNNY   78  56  47 NW6       29.82S
MEDFORD        CLOUDY    78  60  54 W8        29.83R
MERRILL        MOSUNNY   81  59  46 NW12      29.80S HX  81
$$

WIZ029-030-035-036-043>047-262000-
CENTRAL WISCONSIN

CITY           SKY/WX    TMP DP  RH WIND       PRES   REMARKS
WAUSAU         PTSUNNY   82  62  50 W12       29.79S HX  83
MOSINEE        MOSUNNY   81  64  57 W14       29.83S HX  82
MARSHFIELD     CLOUDY    79  66  64 W9        29.83S HX  81
STEVENS POINT  CLOUDY    78  64  62 W7        29.82S HX  80
WAUPACA        CLOUDY    82  67  60 W9        29.81S HX  84
WAUTOMA        CLOUDY    81  69  66 W8        29.82R HX  84
WISC RAPIDS    CLOUDY    79  66  64 NW7       29.84S HX  81
CAMP DOUGLAS   CLOUDY    79  73  83 W5        29.84R HX  82
$$

WIZ011>013-019>022-031-037>040-048>050-262000-
NORTHEAST WISCONSIN

CITY           SKY/WX    TMP DP  RH WIND       PRES   REMARKS
ANTIGO         MOSUNNY   79  62  55 W14       29.81S HX  80
STURGEON BAY   MOSUNNY   79  66  65 SW7G16    29.76F HX  81
GREEN BAY      PTSUNNY   80  70  71 W9        29.78F HX  83
MANITOWOC      CLOUDY    74  64  71 S8        29.79S
APPLETON       CLOUDY    79  66  65 SW8       29.81S HX  81
CLINTONVILLE   MOSUNNY   81  63  54 W8        29.79S HX  82
OSHKOSH        MOSUNNY   78  69  73 W7        29.80S HX  80
$$

WIZ032>034-041-042-053>061-262000-
SOUTHWEST WISCONSIN

CITY           SKY/WX    TMP DP  RH WIND       PRES   REMARKS
LA CROSSE      CLOUDY    76  69  79 CALM      29.83S
SPARTA         CLOUDY    75  68  77 SW3       29.85S
VIROQUA        FAIR      75  73  95 CALM      29.86F
BOSCOBEL       CLOUDY    76  69  79 W5        29.84R
PRAIRIE DU CHI CLOUDY    75  66  73 CALM      29.85R
PLATTEVILLE    FAIR      78  70  77 CALM      29.86F HX  80
$$

WIZ056-057-062-063-064-067-068-262000-
SOUTH CENTRAL WISCONSIN

CITY           SKY/WX    TMP DP  RH WIND       PRES   REMARKS
BARABOO/DELLS  CLOUDY    78  67  69 W5        29.86R HX  80
LONE ROCK      CLOUDY    79  69  71 W5        29.85R HX  81
WATERTOWN      PTSUNNY   78  69  72 SW5       29.83R HX  81
MADISON        CLOUDY    77  68  73 VRB5      29.87R
MIDDLETON      FAIR      77  67  70 NW6       29.85R
MONROE         CLOUDY    77  68  73 CALM      29.84S
JANESVILLE     MOSUNNY   81  64  57 CALM      29.82R HX  82
$$

WIZ051-052-058>065-066-070>072-262000-
SOUTHEAST WISCONSIN

CITY           SKY/WX    TMP DP  RH WIND       PRES   REMARKS
MILWAUKEE      PTSUNNY   76  63  64 SE13      29.82F
WAUKESHA       PTSUNNY   77  64  65 CALM      29.83F
MILWAUKEE/TIMM SUNNY     79  61  53 E6        29.81F HX  80
RACINE         PTSUNNY   77  64  64 VRB7      29.85R
BURLINGTON     PTSUNNY   78  66  66 CALM      29.83S HX  80
KENOSHA        PTSUNNY   78  66  66 E8        29.84R HX  80
FOND DU LAC    MOSUNNY   81  67  62 W8        29.81S HX  83
SHEBOYGAN      PTSUNNY   80  68  66 VRB6      29.80S HX  83
WEST BEND      MOSUNNY   79  63  57 S5        29.81F HX  80
JUNEAU         PTSUNNY   78  66  68 SW6       29.84R
$$

LSZ147-162-262000-
LAKE SUPERIOR

STATION/POSITION TIME  TEMP    WIND        PRES    WAVE
                       AIR SEA DIR/SP/G            HT/PER
                 (UTC) (F)     (DEG/KT/KT) (MB)    (FT/S)
W MID LAKE BUOY  1850   53 44  230/ 10/ 12 1007.4R   1/ 4
PORT WING        1800   77     260/  9/ 10 1008.5R
SAXON HARBOR     1800             CALM     1008.8R
$$

LMZ867-665-643>646-262000-
LAKE MICHIGAN

STATION/POSITION TIME  TEMP    WIND        PRES    WAVE
                       AIR SEA DIR/SP/G            HT/PER
                 (UTC) (F)     (DEG/KT/KT) (MB)    (FT/S)
N MID LAKE BUOY  1850   60 55  210/ 16/ 17 1006.7F   2/ 4
NORTHPORT PIER   1800   70     150/  6/  9 1007.5F
KEWAUNEE LAKESHO 1900   56     160/ 11/ 12 1009.4R
SHEBOYGAN LAKESH 1900   66     180/ 22/ 23 1009.2R
PORT WASHINGTON  1800   69     190/  6/ 11 1010.5
ATWATER BUOY     1900   64     150/  4     1011.1F
MILWAUKEE LAKESH 1900   64     100/  1/  2   N/A
S MID LAKE BUOY  1850   65 63  160/  6/  6 1010.4F   1
KENOSHA   LAKESH 1900   70     120/  4/  4 1010.2R
$$

TC  - TEMPERATURE IN CELSIUS
VSB - VISIBILITY IN STATUTE MILES
WCI - WIND CHILL INDEX
HX  - HEAT INDEX




USA.gov is the U.S. government's official web portal to all federal, state and local government web resources and services.